{"data":{"norad_id":56168,"intl_designator":"2023-050G","name":"CHECKMATE 1","alt_names":[],"object_type":"PAYLOAD","status":"ACTIVE","operator":null,"country":"US","launch_date":"2023-04-02","launch_site_code":"AFWTR","launch_vehicle":null,"mission":null,"orbit_class":"UNKNOWN","rcs_meters":null,"size_class":null,"mass_kg":null,"dimensions":null,"purposes":[],"wikipedia_slug":null,"has_3d_model":false,"image_url":null,"decayed_at":null,"tle_current":{"epoch":"2026-05-25T03:25:03.278784Z","epoch_age_seconds":58896,"freshness":"FRESH","line1":"1 56168U 23050G   26145.14239906  .00000089  00000+0  68557-4 0  9999","line2":"2 56168  81.0034  94.0592 0012445  51.0226 309.2036 13.84947261158906","mean_motion":13.84947261,"eccentricity":0.0012445,"inclination_deg":81.0034,"raan_deg":94.0592,"arg_perigee_deg":51.0226,"mean_anomaly_deg":309.2036,"bstar":6.8557e-5,"rev_number":15890,"period_min":103.97507836943,"perigee_km":937.27630924145,"apogee_km":955.50706113889,"semimajor_km":7324.5286851902,"source":"CELESTRAK","updated_at":"2026-05-25T13:37:59.369736Z"}}}